JBU101 KNYL-KSNA

Flight info

Callsign JBU101
Flight time 0h 39m
Altitude 16000
Route BZA V458 IPL JLI V458 PACIF SLI
Aircraft A321/M-SDE3FGHIRWY/LB1

Departure

Time 2026-04-25 05:11
Airport Yuma International Airport / Marine Corps Air Station Yuma (KNYL)

Arrival

Time 2026-04-25 05:50
Airport John Wayne Orange County International Airport (KSNA)
Time Latitude Longitude Altitude Speed Heading
2026-04-25 04:37 32.66785 -114.59959 205 ft 0 kts 360°
2026-04-25 05:05 32.66775 -114.59959 205 ft 2 kts 359°
2026-04-25 05:05 32.66761 -114.59959 205 ft 2 kts 360°
2026-04-25 05:06 32.66745 -114.59959 205 ft 2 kts
2026-04-25 05:06 32.66732 -114.59967 204 ft 2 kts 52°
2026-04-25 05:06 32.66728 -114.59974 204 ft 0 kts 72°
2026-04-25 05:06 32.66727 -114.59980 204 ft 0 kts 68°
2026-04-25 05:07 32.66728 -114.59976 204 ft 3 kts 68°
2026-04-25 05:08 32.66733 -114.59946 205 ft 8 kts 88°
2026-04-25 05:08 32.66734 -114.59882 206 ft 7 kts 93°
2026-04-25 05:08 32.66732 -114.59834 206 ft 5 kts 90°
2026-04-25 05:08 32.66734 -114.59704 208 ft 19 kts 86°
2026-04-25 05:09 32.66734 -114.59559 209 ft 16 kts 90°
2026-04-25 05:09 32.66732 -114.59428 211 ft 15 kts 90°
2026-04-25 05:09 32.66734 -114.59305 213 ft 14 kts 88°
2026-04-25 05:09 32.66737 -114.59192 215 ft 11 kts 88°
2026-04-25 05:10 32.66730 -114.59141 215 ft 4 kts 125°
2026-04-25 05:10 32.66718 -114.59141 215 ft 0 kts 218°
2026-04-25 05:10 32.66595 -114.59279 213 ft 68 kts 223°
2026-04-25 05:10 32.66021 -114.59932 201 ft 155 kts 224°
2026-04-25 05:11 32.65171 -114.60835 935 ft 169 kts 224°
2026-04-25 05:11 32.64177 -114.61472 2030 ft 174 kts 191°
2026-04-25 05:11 32.62993 -114.61228 2719 ft 184 kts 156°
2026-04-25 05:12 32.61754 -114.58428 3528 ft 224 kts 81°
2026-04-25 05:12 32.62479 -114.56770 3842 ft 242 kts 38°
2026-04-25 05:12 32.64018 -114.55979 4354 ft 247 kts 359°
2026-04-25 05:12 32.65726 -114.56294 4930 ft 255 kts 339°
2026-04-25 05:13 32.67446 -114.57008 5441 ft 271 kts 337°
2026-04-25 05:13 32.69257 -114.57743 6135 ft 280 kts 339°
2026-04-25 05:13 32.71125 -114.58425 6936 ft 283 kts 340°
2026-04-25 05:13 32.73020 -114.59062 7746 ft 286 kts 340°
2026-04-25 05:14 32.74919 -114.59678 8539 ft 288 kts 339°
2026-04-25 05:14 32.76761 -114.60543 9318 ft 285 kts 326°
2026-04-25 05:14 32.78301 -114.61943 10086 ft 279 kts 307°
2026-04-25 05:15 32.80632 -114.65675 11573 ft 282 kts 301°
2026-04-25 05:15 32.81750 -114.67509 12634 ft 271 kts 301°
2026-04-25 05:15 32.82819 -114.69258 13647 ft 259 kts 300°
2026-04-25 05:15 32.83849 -114.70945 14552 ft 251 kts 300°
2026-04-25 05:16 32.84865 -114.72614 15251 ft 249 kts 300°
2026-04-25 05:16 32.85873 -114.74271 15855 ft 250 kts 300°
2026-04-25 05:16 32.86897 -114.75949 16441 ft 253 kts 300°
2026-04-25 05:16 32.87923 -114.77631 16998 ft 255 kts 301°
2026-04-25 05:17 32.88969 -114.79342 17582 ft 256 kts 301°
2026-04-25 05:17 32.90024 -114.81066 18134 ft 259 kts 300°
2026-04-25 05:17 32.91076 -114.82785 18573 ft 265 kts 300°
2026-04-25 05:17 32.92189 -114.84613 18829 ft 279 kts 301°
2026-04-25 05:18 32.93364 -114.86539 19077 ft 292 kts 301°
2026-04-25 05:18 32.94575 -114.88524 19315 ft 305 kts 301°
2026-04-25 05:18 32.95859 -114.90625 19571 ft 318 kts 301°
2026-04-25 05:18 32.97177 -114.92785 19803 ft 331 kts 301°
2026-04-25 05:19 32.98560 -114.95051 20028 ft 343 kts 302°
2026-04-25 05:19 32.99981 -114.97373 20250 ft 355 kts 302°
2026-04-25 05:19 33.01450 -114.99782 20461 ft 366 kts 302°
2026-04-25 05:19 33.02978 -115.02284 20663 ft 378 kts 302°
2026-04-25 05:20 33.04546 -115.04856 20859 ft 388 kts 302°
2026-04-25 05:20 33.06147 -115.07488 21045 ft 398 kts 302°
2026-04-25 05:20 33.07787 -115.10181 21358 ft 404 kts 302°
2026-04-25 05:20 33.09436 -115.12894 21794 ft 407 kts 302°
2026-04-25 05:21 33.11103 -115.15627 22233 ft 409 kts 302°
2026-04-25 05:21 33.12763 -115.18334 22640 ft 411 kts 302°
2026-04-25 05:21 33.14450 -115.21092 23050 ft 414 kts 302°
2026-04-25 05:21 33.16152 -115.23886 23460 ft 415 kts 302°
2026-04-25 05:22 33.17843 -115.26667 23878 ft 417 kts 301°
2026-04-25 05:22 33.19546 -115.29478 24266 ft 419 kts 301°
2026-04-25 05:22 33.21244 -115.32282 24656 ft 420 kts 301°
2026-04-25 05:22 33.22972 -115.35139 25034 ft 421 kts 301°
2026-04-25 05:23 33.24672 -115.37952 25421 ft 422 kts 301°
2026-04-25 05:23 33.26380 -115.40786 25753 ft 424 kts 301°
2026-04-25 05:23 33.28122 -115.43677 26091 ft 426 kts 301°
2026-04-25 05:23 33.29850 -115.46543 26514 ft 425 kts 301°
2026-04-25 05:24 33.31551 -115.49372 26989 ft 423 kts 301°
2026-04-25 05:24 33.33260 -115.52213 27490 ft 420 kts 301°
2026-04-25 05:24 33.34951 -115.55027 27962 ft 418 kts 300°
2026-04-25 05:24 33.36643 -115.57846 28437 ft 416 kts 300°
2026-04-25 05:25 33.38329 -115.60654 28890 ft 414 kts 300°
2026-04-25 05:25 33.39984 -115.63419 29308 ft 412 kts 300°
2026-04-25 05:25 33.41652 -115.66210 29762 ft 410 kts 299°
2026-04-25 05:25 33.43328 -115.69022 30203 ft 408 kts 299°
2026-04-25 05:26 33.44995 -115.71819 30658 ft 406 kts 298°
2026-04-25 05:26 33.46628 -115.74559 31138 ft 402 kts 298°
2026-04-25 05:26 33.48280 -115.77327 31577 ft 399 kts 298°
2026-04-25 05:26 33.49886 -115.80024 31988 ft 397 kts 298°
2026-04-25 05:27 33.51505 -115.82745 32388 ft 395 kts 297°
2026-04-25 05:27 33.53097 -115.85421 32711 ft 395 kts 297°
2026-04-25 05:27 33.54669 -115.88065 32996 ft 395 kts 297°
2026-04-25 05:27 33.56265 -115.90752 33271 ft 395 kts 297°
2026-04-25 05:28 33.57876 -115.93465 33543 ft 395 kts 297°
2026-04-25 05:28 33.59481 -115.96169 33770 ft 396 kts 297°
2026-04-25 05:28 33.61084 -115.98878 33816 ft 400 kts 296°
2026-04-25 05:29 33.64322 -116.04352 33836 ft 404 kts 297°
2026-04-25 05:29 33.67577 -116.09850 33857 ft 405 kts 297°
2026-04-25 05:30 33.70837 -116.15367 33855 ft 405 kts 297°
2026-04-25 05:30 33.74094 -116.20895 33855 ft 405 kts 297°
2026-04-25 05:31 33.77341 -116.26414 33838 ft 406 kts 296°
2026-04-25 05:31 33.80597 -116.31953 33875 ft 407 kts 296°
2026-04-25 05:32 33.83529 -116.37756 33882 ft 399 kts 290°
2026-04-25 05:32 33.85663 -116.43888 33889 ft 392 kts 283°
2026-04-25 05:33 33.87000 -116.50135 33891 ft 386 kts 276°
2026-04-25 05:33 33.87602 -116.56546 33895 ft 384 kts 270°
2026-04-25 05:33 33.87777 -116.59721 33565 ft 379 kts 271°
2026-04-25 05:34 33.87938 -116.62846 32959 ft 377 kts 271°
2026-04-25 05:34 33.88093 -116.65968 32016 ft 382 kts 271°
2026-04-25 05:34 33.88245 -116.69168 31025 ft 389 kts 271°
2026-04-25 05:34 33.88398 -116.72438 30378 ft 400 kts 271°
2026-04-25 05:35 33.88553 -116.75811 29605 ft 405 kts 271°
2026-04-25 05:35 33.88703 -116.79173 28528 ft 411 kts 271°
2026-04-25 05:35 33.88621 -116.82606 27673 ft 410 kts 264°
2026-04-25 05:35 33.88193 -116.86002 26643 ft 414 kts 259°
2026-04-25 05:36 33.87415 -116.89326 25400 ft 423 kts 252°
2026-04-25 05:36 33.86371 -116.92585 24651 ft 419 kts 250°
2026-04-25 05:36 33.85303 -116.95805 24183 ft 406 kts 250°
2026-04-25 05:36 33.84284 -116.98839 23764 ft 384 kts 250°
2026-04-25 05:37 33.83305 -117.01747 23211 ft 363 kts 250°
2026-04-25 05:37 33.82386 -117.04479 22690 ft 345 kts 250°
2026-04-25 05:37 33.81515 -117.07067 22213 ft 330 kts 250°
2026-04-25 05:37 33.80674 -117.09562 21851 ft 318 kts 250°
2026-04-25 05:38 33.79843 -117.12027 20991 ft 323 kts 250°
2026-04-25 05:38 33.79010 -117.14532 19924 ft 332 kts 251°
2026-04-25 05:38 33.78331 -117.17213 18809 ft 341 kts 257°
2026-04-25 05:38 33.78017 -117.20033 17664 ft 350 kts 271°
2026-04-25 05:39 33.78513 -117.22852 16763 ft 353 kts 287°
2026-04-25 05:39 33.79436 -117.25586 16017 ft 350 kts 290°
2026-04-25 05:39 33.80400 -117.28212 15151 ft 345 kts 291°
2026-04-25 05:39 33.81372 -117.30838 14130 ft 341 kts 291°
2026-04-25 05:40 33.82320 -117.33403 13123 ft 337 kts 291°
2026-04-25 05:40 33.83250 -117.35949 12141 ft 333 kts 291°
2026-04-25 05:40 33.84145 -117.38421 11458 ft 321 kts 291°
2026-04-25 05:40 33.85025 -117.40872 10696 ft 316 kts 291°
2026-04-25 05:41 33.85874 -117.43262 10236 ft 312 kts 291°
2026-04-25 05:41 33.86701 -117.45606 10005 ft 291 kts 291°
2026-04-25 05:41 33.87468 -117.47791 9976 ft 277 kts 291°
2026-04-25 05:41 33.88211 -117.49917 9984 ft 275 kts 291°
2026-04-25 05:42 33.88946 -117.52026 9981 ft 274 kts 291°
2026-04-25 05:42 33.89674 -117.54108 9918 ft 269 kts 291°
2026-04-25 05:42 33.90406 -117.56177 9540 ft 269 kts 291°
2026-04-25 05:42 33.91140 -117.58254 8946 ft 268 kts 291°
2026-04-25 05:43 33.91851 -117.60284 8500 ft 260 kts 291°
2026-04-25 05:43 33.92533 -117.62246 8049 ft 255 kts 291°
2026-04-25 05:43 33.93206 -117.64203 7474 ft 254 kts 291°
2026-04-25 05:43 33.93608 -117.66240 6852 ft 254 kts 268°
2026-04-25 05:44 33.93137 -117.68252 6287 ft 253 kts 238°
2026-04-25 05:44 33.91915 -117.69746 5760 ft 252 kts 216°
2026-04-25 05:44 33.90479 -117.70852 5474 ft 241 kts 212°
2026-04-25 05:44 33.89069 -117.71847 5283 ft 225 kts 211°
2026-04-25 05:45 33.87763 -117.72750 5111 ft 209 kts 211°
2026-04-25 05:45 33.86518 -117.73607 4999 ft 201 kts 211°
2026-04-25 05:45 33.85340 -117.74508 4706 ft 200 kts 216°
2026-04-25 05:45 33.84227 -117.75492 4307 ft 198 kts 218°
2026-04-25 05:46 33.83110 -117.76432 3882 ft 194 kts 214°
2026-04-25 05:46 33.81998 -117.77308 3571 ft 184 kts 211°
2026-04-25 05:46 33.80915 -117.78133 3427 ft 182 kts 212°
2026-04-25 05:46 33.79839 -117.78951 3127 ft 182 kts 212°
2026-04-25 05:47 33.78780 -117.79771 2755 ft 178 kts 211°
2026-04-25 05:47 33.77739 -117.80502 2390 ft 170 kts 206°
2026-04-25 05:47 33.76692 -117.81129 1993 ft 165 kts 204°
2026-04-25 05:47 33.75679 -117.81744 1647 ft 157 kts 205°
2026-04-25 05:48 33.74768 -117.82323 1441 ft 145 kts 206°
2026-04-25 05:48 33.73873 -117.82891 1242 ft 143 kts 206°
2026-04-25 05:48 33.72996 -117.83448 1070 ft 143 kts 206°
2026-04-25 05:48 33.72109 -117.84004 888 ft 142 kts 206°
2026-04-25 05:49 33.71236 -117.84558 705 ft 142 kts 206°
2026-04-25 05:49 33.70359 -117.85117 522 ft 142 kts 206°
2026-04-25 05:49 33.69487 -117.85673 344 ft 142 kts 206°
2026-04-25 05:49 33.68604 -117.86232 167 ft 143 kts 205°
2026-04-25 05:50 33.67731 -117.86784 56 ft 134 kts 205°
2026-04-25 05:50 33.67091 -117.87190 58 ft 61 kts 207°
2026-04-25 05:50 33.66856 -117.87338 59 ft 15 kts 208°
2026-04-25 05:50 33.66770 -117.87337 59 ft 13 kts 132°
2026-04-25 05:51 33.66769 -117.87245 59 ft 10 kts 46°
2026-04-25 05:51 33.66825 -117.87183 59 ft 11 kts 44°
2026-04-25 05:51 33.66886 -117.87116 59 ft 12 kts 39°
2026-04-25 05:51 33.66958 -117.87047 58 ft 14 kts 39°
2026-04-25 05:52 33.67043 -117.86961 56 ft 16 kts 41°
2026-04-25 05:52 33.67131 -117.86871 56 ft 16 kts 36°
2026-04-25 05:52 33.67231 -117.86801 56 ft 16 kts 27°
2026-04-25 05:52 33.67319 -117.86718 54 ft 16 kts 44°
2026-04-25 05:53 33.67418 -117.86645 53 ft 16 kts 26°
2026-04-25 05:53 33.67519 -117.86580 53 ft 15 kts 30°
2026-04-25 05:53 33.67554 -117.86550 53 ft 4 kts 64°
2026-04-25 05:53 33.67553 -117.86524 52 ft 1 kts 115°
2026-04-25 05:54 33.67541 -117.86495 52 ft 1 kts 117°
2026-04-25 05:54 33.67539 -117.86492 52 ft 0 kts 117°